Laredo, TX

1:48 PM CDT on August 16, 2017 (GMT -0500)
Laredo International

Weather History for KLRD - February, 2012

Change the Weather History Date:

Friday, February 17, 2012

  Actual Average Record
Temperature  
Mean Temperature 61 °F 62 °F  
Max Temperature 63 °F 73 °F 95 °F (1956)
Min Temperature 58 °F 51 °F 24 °F (1903)
Degree Days  
Heating Degree Days 4 5  
Month to date heating degree days 121 114  
Since 1 July heating degree days 604 793  
Cooling Degree Days 0 2  
Month to date cooling degree days 29 30  
Year to date cooling degree days 72 58  
Growing Degree Days 10 (Base 50)    
Moisture  
Dew Point 58 °F    
Average Humidity 94    
Maximum Humidity 100    
Minimum Humidity 90    
Precipitation  
Precipitation 0.03 in 0.04 in 1.35 in (1973)
Month to date precipitation 0.30 0.57  
Year to date precipitation 0.32 1.47  
Sea Level Pressure  
Sea Level Pressure 29.95 in    
Wind  
Wind Speed 9 mph (NNE)    
Max Wind Speed 15 mph    
Max Gust Speed 17 mph    
Visibility 2 miles    
Events Fog , Rain    
T = Trace of Precipitation, MM = Missing Value Source: NWS Daily Summary

Daily Weather History Graph

Daily Weather History Graph

Search for Another Location

Airport or City:

Trip Planner

Search our weather history database for the weather conditions in past years. The results will help you decide how hot, cold, wet, or windy it might be!

Date:

Astronomy

Feb. 17, 2012 Rise Set
Actual Time 7:13 AM CST 6:30 PM CST
Civil Twilight 6:49 AM CST 6:54 PM CST
Nautical Twilight 6:22 AM CST 7:21 PM CST
Astronomical Twilight 5:55 AM CST 7:48 PM CST
Moon 3:50 AM CST (2/17) 2:40 PM CST (2/17)
Length of Visible Light 12h 04m
Length of Day
11h 16m
Waning Crescent, 19% of the Moon is Illuminated
Feb 17
Waning Crescent
Feb 21
New
Feb 29
First Quarter
Mar 8
Full
Mar 14
Last Quarter

Hourly Weather History & Observations

Time (CST) Temp. Dew Point Humidity Pressure Visibility Wind Dir Wind Speed Gust Speed Precip Events Conditions
12:11 AM 62.6 °F 59.0 °F 88% 30.02 in 10.0 mi NE 8.1 mph - N/A   Overcast
12:56 AM 63.0 °F 59.9 °F 90% 29.98 in 7.0 mi ENE 10.4 mph - N/A   Overcast
1:35 AM 62.6 °F 59.0 °F 88% 30.00 in 5.0 mi ENE 11.5 mph - N/A   Overcast
1:56 AM 61.0 °F 59.0 °F 93% 29.97 in 5.0 mi NE 11.5 mph - N/A   Overcast
2:56 AM 61.0 °F 57.9 °F 90% 29.96 in 4.0 mi NE 12.7 mph - N/A   Overcast
3:37 AM 59.0 °F 57.2 °F 94% 29.98 in 3.0 mi ENE 12.7 mph - N/A   Overcast
3:46 AM 59.0 °F 57.2 °F 94% 29.98 in 2.5 mi ENE 9.2 mph - N/A   Overcast
3:56 AM 59.0 °F 57.2 °F 94% 29.97 in 2.5 mi ENE 8.1 mph - N/A   Overcast
4:24 AM 59.0 °F 57.2 °F 94% 29.96 in 3.0 mi NE 11.5 mph - N/A   Overcast
4:56 AM 59.0 °F 57.9 °F 96% 29.95 in 5.0 mi East 9.2 mph - N/A   Overcast
5:12 AM 60.8 °F 57.2 °F 88% 29.98 in 5.0 mi ENE 8.1 mph - N/A   Overcast
5:39 AM 60.8 °F 57.2 °F 88% 29.98 in 3.0 mi NE 11.5 mph - 0.00 in Rain Light Rain
5:47 AM 59.0 °F 57.2 °F 94% 29.98 in 1.8 mi NE 12.7 mph - 0.00 in Rain Light Rain
5:56 AM 59.0 °F 57.9 °F 96% 29.95 in 1.2 mi NE 12.7 mph - 0.00 in Rain Light Rain
6:05 AM 59.0 °F 57.2 °F 94% 29.98 in 1.0 mi NE 12.7 mph - N/A Rain Light Rain
6:14 AM 59.0 °F 57.2 °F 94% 29.98 in 1.5 mi NE 15.0 mph - 0.00 in Rain Light Rain
6:38 AM 59.0 °F 57.2 °F 94% 29.98 in 2.5 mi NE 13.8 mph - 0.00 in Rain Light Rain
6:56 AM 59.0 °F 57.9 °F 96% 29.97 in 3.0 mi NE 11.5 mph - 0.00 in Rain Light Rain
7:05 AM 59.0 °F 57.2 °F 94% 29.99 in 2.5 mi NE 13.8 mph - 0.00 in Rain Light Rain
7:56 AM 59.0 °F 57.9 °F 96% 29.98 in 2.5 mi NE 11.5 mph - 0.02 in Rain Light Rain
8:30 AM 59.0 °F 57.2 °F 94% 30.01 in 1.5 mi NE 10.4 mph - 0.00 in Rain Light Rain
8:45 AM 59.0 °F 57.2 °F 94% 30.01 in 3.0 mi NE 10.4 mph - 0.00 in   Overcast
8:56 AM 59.0 °F 57.9 °F 96% 29.99 in 2.5 mi NE 9.2 mph - 0.00 in   Overcast
9:25 AM 57.2 °F 57.2 °F 100% 30.02 in 1.2 mi NE 10.4 mph - N/A   Overcast
9:35 AM 59.0 °F 57.2 °F 94% 30.02 in 1.0 mi NNE 8.1 mph - 0.00 in Rain Light Rain
9:56 AM 59.0 °F 57.9 °F 96% 30.00 in 1.0 mi NNE 9.2 mph - 0.00 in Rain Light Rain
10:06 AM 59.0 °F 57.2 °F 94% 30.03 in 0.5 mi NNE 8.1 mph - 0.00 in Fog , Rain Light Rain
10:33 AM 59.0 °F 57.2 °F 94% 30.03 in 1.0 mi NE 9.2 mph - 0.00 in Rain Light Rain
10:42 AM 59.0 °F 57.2 °F 94% 30.03 in 1.2 mi NNE 6.9 mph - 0.00 in   Overcast
10:56 AM 59.0 °F 57.9 °F 96% 30.00 in 1.0 mi NE 9.2 mph - 0.00 in   Overcast
10:58 AM 59.0 °F 57.2 °F 94% 30.02 in 1.2 mi NE 8.1 mph - N/A   Overcast
11:08 AM 59.0 °F 57.2 °F 94% 30.02 in 1.5 mi NE 6.9 mph - 0.00 in Rain Light Rain
11:12 AM 59.0 °F 57.2 °F 94% 30.02 in 1.0 mi NE 6.9 mph - 0.00 in Rain Light Rain
11:21 AM 59.0 °F 57.2 °F 94% 30.02 in 0.8 mi NE 6.9 mph - 0.00 in Rain Light Rain
11:32 AM 60.8 °F 59.0 °F 94% 30.01 in 1.0 mi NE 6.9 mph - 0.00 in Rain Light Rain
11:39 AM 60.8 °F 59.0 °F 94% 30.01 in 1.2 mi NNE 5.8 mph - 0.00 in   Overcast
11:56 AM 59.9 °F 57.9 °F 93% 29.99 in 1.2 mi NNE 5.8 mph - 0.00 in   Overcast
12:07 PM 60.8 °F 59.0 °F 94% 30.00 in 0.8 mi North 6.9 mph - 0.00 in Rain Light Rain
12:18 PM 60.8 °F 59.0 °F 94% 30.01 in 1.2 mi North 9.2 mph - 0.00 in Rain Light Rain
12:32 PM 60.8 °F 59.0 °F 94% 30.00 in 0.8 mi North 8.1 mph - 0.00 in Rain Light Rain
12:43 PM 60.8 °F 57.2 °F 88% 30.00 in 0.5 mi North 10.4 mph - 0.01 in Fog , Rain Light Rain
12:56 PM 59.9 °F 59.0 °F 97% 29.97 in 0.5 mi North 10.4 mph - 0.01 in Fog , Rain Light Rain
1:10 PM 59.0 °F 57.2 °F 94% 29.98 in 0.8 mi North 9.2 mph - 0.00 in Rain Light Rain
1:24 PM 59.0 °F 57.2 °F 94% 29.98 in 1.0 mi North 9.2 mph - 0.00 in Rain Light Rain
1:45 PM 60.8 °F 57.2 °F 88% 29.97 in 1.2 mi North 10.4 mph - 0.00 in Rain Light Rain
1:56 PM 59.9 °F 57.9 °F 93% 29.94 in 1.5 mi NNW 11.5 mph - 0.00 in Rain Light Rain
2:24 PM 60.8 °F 59.0 °F 94% 29.94 in 1.0 mi North 10.4 mph - 0.00 in Rain Light Rain
2:49 PM 60.8 °F 59.0 °F 94% 29.93 in 1.2 mi North 10.4 mph - 0.00 in   Overcast
2:56 PM 59.9 °F 57.9 °F 93% 29.90 in 1.5 mi North 10.4 mph - 0.00 in   Overcast
3:08 PM 60.8 °F 59.0 °F 94% 29.92 in 1.0 mi North 10.4 mph - N/A   Overcast
3:29 PM 60.8 °F 59.0 °F 94% 29.92 in 0.8 mi North 8.1 mph - N/A   Overcast
3:56 PM 59.9 °F 59.0 °F 97% 29.90 in 0.8 mi North 8.1 mph - 0.00 in Rain Light Rain
4:48 PM 60.8 °F 59.0 °F 94% 29.91 in 1.0 mi NNE 9.2 mph - 0.00 in   Overcast
4:56 PM 59.9 °F 59.0 °F 97% 29.90 in 1.0 mi North 8.1 mph - 0.00 in   Overcast
5:47 PM 60.8 °F 59.0 °F 94% 29.90 in 1.5 mi NNE 9.2 mph - N/A   Overcast
5:56 PM 59.9 °F 59.0 °F 97% 29.88 in 1.8 mi North 8.1 mph - N/A   Overcast
6:12 PM 60.8 °F 59.0 °F 94% 29.90 in 2.5 mi NNE 8.1 mph - N/A   Overcast
6:31 PM 60.8 °F 59.0 °F 94% 29.90 in 3.0 mi NNE 6.9 mph - N/A   Overcast
6:41 PM 60.8 °F 59.0 °F 94% 29.90 in 2.5 mi NNE 8.1 mph - N/A   Overcast
6:56 PM 59.9 °F 59.0 °F 97% 29.87 in 3.0 mi NNE 8.1 mph - N/A   Overcast
7:11 PM 60.8 °F 59.0 °F 94% 29.89 in 2.0 mi NNE 9.2 mph - N/A   Overcast
7:56 PM 59.9 °F 59.0 °F 97% 29.86 in 2.0 mi NE 6.9 mph - N/A   Overcast
8:21 PM 60.8 °F 59.0 °F 94% 29.88 in 2.0 mi NE 6.9 mph - N/A   Overcast
8:56 PM 59.9 °F 59.0 °F 97% 29.86 in 2.0 mi NE 5.8 mph - N/A   Overcast
9:24 PM 60.8 °F 59.0 °F 94% 29.88 in 1.5 mi North 4.6 mph - N/A   Overcast
9:39 PM 60.8 °F 59.0 °F 94% 29.88 in 1.2 mi North 4.6 mph - N/A   Overcast
9:56 PM 59.9 °F 59.9 °F 100% 29.87 in 1.5 mi WNW 8.1 mph - N/A   Overcast
10:04 PM 60.8 °F 60.8 °F 100% 29.90 in 1.0 mi WNW 11.5 mph - N/A   Overcast
10:22 PM 60.8 °F 59.0 °F 94% 29.89 in 0.8 mi WNW 11.5 mph - 0.00 in Rain Light Rain
10:44 PM 60.8 °F 59.0 °F 94% 29.88 in 1.0 mi NW 9.2 mph - 0.00 in Rain Light Rain
10:56 PM 59.0 °F 59.0 °F 100% 29.85 in 1.2 mi NW 6.9 mph - 0.00 in   Overcast
11:39 PM 59.0 °F 59.0 °F 100% 29.86 in 1.5 mi NW 8.1 mph - N/A   Overcast
11:56 PM 59.0 °F 59.0 °F 100% 29.85 in 1.5 mi WNW 11.5 mph - N/A   Overcast